FAB2326 SBBW-SBCC

Flight info

Callsign FAB2326
Flight time N/A
Altitude 10000
Route DCT 123754S0534154W DCT
Aircraft C95M/L-SDE3/C

Departure

Time 2026-04-19 20:43
Airport Barra do Garças Airport (SBBW)

Arrival

Time N/A
Airport Campo de Provas Brigadeiro Veloso (SBCC)
Time Latitude Longitude Altitude Speed Heading
2026-04-19 20:38 -15.86032 -52.39006 1152 ft 0 kts 197°
2026-04-19 20:40 -15.86051 -52.39012 1152 ft 13 kts 197°
2026-04-19 20:41 -15.86111 -52.39034 1152 ft 12 kts 211°
2026-04-19 20:41 -15.86170 -52.39093 1152 ft 17 kts 235°
2026-04-19 20:41 -15.86283 -52.39263 1152 ft 25 kts 233°
2026-04-19 20:41 -15.86369 -52.39401 1152 ft 20 kts 239°
2026-04-19 20:42 -15.86415 -52.39478 1152 ft 14 kts 222°
2026-04-19 20:42 -15.86425 -52.39475 1152 ft 0 kts 56°
2026-04-19 20:42 -15.86380 -52.39410 1152 ft 38 kts 55°
2026-04-19 20:42 -15.86081 -52.38969 1154 ft 107 kts 55°
2026-04-19 20:43 -15.85744 -52.38470 1228 ft 136 kts 55°
2026-04-19 20:43 -15.85303 -52.37789 1590 ft 142 kts 56°
2026-04-19 20:43 -15.84733 -52.36936 2068 ft 145 kts 54°
2026-04-19 20:44 -15.84114 -52.36049 2366 ft 162 kts 52°
2026-04-19 20:44 -15.83182 -52.35315 2588 ft 176 kts 20°
2026-04-19 20:44 -15.81960 -52.35236 2806 ft 184 kts 347°
2026-04-19 20:44 -15.80749 -52.35735 3053 ft 188 kts 333°
2026-04-19 20:45 -15.79580 -52.36396 3261 ft 193 kts 331°
2026-04-19 20:45 -15.78391 -52.37072 3466 ft 195 kts 332°
2026-04-19 20:45 -15.77184 -52.37716 3668 ft 197 kts 333°
2026-04-19 20:45 -15.75939 -52.38338 3870 ft 199 kts 335°
2026-04-19 20:46 -15.74671 -52.38939 4073 ft 200 kts 336°
2026-04-19 20:46 -15.73406 -52.39516 4272 ft 201 kts 336°
2026-04-19 20:46 -15.72114 -52.40092 4474 ft 202 kts 337°
2026-04-19 20:46 -15.70826 -52.40656 4676 ft 202 kts 337°
2026-04-19 20:47 -15.69525 -52.41220 4879 ft 202 kts 337°
2026-04-19 20:47 -15.68223 -52.41780 5082 ft 201 kts 337°
2026-04-19 20:47 -15.66941 -52.42327 5281 ft 200 kts 337°
2026-04-19 20:47 -15.65647 -52.42879 5483 ft 200 kts 336°
2026-04-19 20:48 -15.64374 -52.43420 5681 ft 199 kts 336°
2026-04-19 20:48 -15.63092 -52.43965 5881 ft 198 kts 335°
2026-04-19 20:48 -15.61817 -52.44507 6081 ft 197 kts 334°
2026-04-19 20:48 -15.60553 -52.45044 6279 ft 197 kts 334°
2026-04-19 20:49 -15.59274 -52.45587 6478 ft 198 kts 333°
2026-04-19 20:49 -15.58005 -52.46128 6677 ft 198 kts 332°
2026-04-19 20:49 -15.56735 -52.46671 6876 ft 199 kts 332°
2026-04-19 20:49 -15.55445 -52.47223 7078 ft 199 kts 332°
2026-04-19 20:50 -15.54173 -52.47767 7276 ft 200 kts 332°
2026-04-19 20:50 -15.52879 -52.48319 7478 ft 200 kts 332°
2026-04-19 20:50 -15.51586 -52.48870 7679 ft 200 kts 332°
2026-04-19 20:50 -15.50309 -52.49414 7877 ft 201 kts 332°
2026-04-19 20:51 -15.49009 -52.49967 8078 ft 201 kts 332°
2026-04-19 20:51 -15.47723 -52.50514 8277 ft 201 kts 332°
2026-04-19 20:51 -15.46420 -52.51068 8478 ft 202 kts 332°
2026-04-19 20:51 -15.45115 -52.51623 8679 ft 202 kts 332°
2026-04-19 20:52 -15.43826 -52.52171 8877 ft 202 kts 332°
2026-04-19 20:52 -15.42516 -52.52728 9078 ft 202 kts 332°
2026-04-19 20:52 -15.41224 -52.53277 9277 ft 203 kts 332°
2026-04-19 20:52 -15.39916 -52.53832 9477 ft 203 kts 332°
2026-04-19 20:53 -15.38600 -52.54392 9679 ft 203 kts 332°
2026-04-19 20:53 -15.37299 -52.54945 9849 ft 205 kts 332°
2026-04-19 20:53 -15.35965 -52.55513 9962 ft 209 kts 332°
2026-04-19 20:53 -15.34597 -52.56096 9995 ft 215 kts 332°
2026-04-19 20:54 -15.33213 -52.56686 10001 ft 220 kts 333°
2026-04-19 20:54 -15.31781 -52.57295 10002 ft 223 kts 333°
2026-04-19 20:54 -15.30329 -52.57911 10002 ft 225 kts 333°
2026-04-19 20:54 -15.28891 -52.58520 10001 ft 226 kts 333°
2026-04-19 20:55 -15.27429 -52.59140 10001 ft 227 kts 333°
2026-04-19 20:55 -15.25950 -52.59766 10000 ft 228 kts 333°
2026-04-19 20:55 -15.24501 -52.60379 10000 ft 228 kts 333°
2026-04-19 20:55 -15.23041 -52.60997 10000 ft 228 kts 333°
2026-04-19 20:56 -15.21550 -52.61629 10000 ft 228 kts 333°
2026-04-19 20:56 -15.20087 -52.62248 10000 ft 228 kts 333°
2026-04-19 20:56 -15.18611 -52.62874 10000 ft 228 kts 333°
2026-04-19 20:56 -15.17154 -52.63491 10000 ft 228 kts 333°
2026-04-19 20:57 -15.15680 -52.64116 10000 ft 228 kts 333°
2026-04-19 20:57 -15.14204 -52.64741 10000 ft 228 kts 333°
2026-04-19 20:57 -15.12746 -52.65358 10000 ft 228 kts 333°
2026-04-19 20:57 -15.11266 -52.65985 10000 ft 228 kts 333°
2026-04-19 20:58 -15.09792 -52.66609 10000 ft 228 kts 333°
2026-04-19 20:58 -15.08331 -52.67228 10000 ft 228 kts 333°
2026-04-19 20:58 -15.06855 -52.67853 10000 ft 228 kts 333°
2026-04-19 20:58 -15.05378 -52.68478 10000 ft 228 kts 333°
2026-04-19 20:59 -15.03927 -52.69092 10000 ft 228 kts 333°
2026-04-19 20:59 -15.02451 -52.69717 10000 ft 228 kts 333°
2026-04-19 20:59 -15.00972 -52.70343 10000 ft 228 kts 333°
2026-04-19 20:59 -14.99508 -52.70962 10000 ft 228 kts 333°
2026-04-19 21:00 -14.98031 -52.71587 10000 ft 228 kts 333°
2026-04-19 21:00 -14.96570 -52.72205 10000 ft 228 kts 333°
2026-04-19 21:00 -14.95093 -52.72830 10000 ft 228 kts 333°
2026-04-19 21:00 -14.93640 -52.73444 10000 ft 228 kts 333°
2026-04-19 21:01 -14.92155 -52.74072 10000 ft 228 kts 333°
2026-04-19 21:01 -14.90698 -52.74688 10000 ft 228 kts 333°
2026-04-19 21:01 -14.89223 -52.75311 10000 ft 228 kts 333°
2026-04-19 21:01 -14.87742 -52.75937 10000 ft 228 kts 333°
2026-04-19 21:02 -14.86285 -52.76553 10000 ft 228 kts 333°
2026-04-19 21:02 -14.84819 -52.77173 10000 ft 228 kts 333°
2026-04-19 21:02 -14.83337 -52.77798 10000 ft 228 kts 333°
2026-04-19 21:02 -14.81862 -52.78422 10000 ft 228 kts 333°
2026-04-19 21:03 -14.80406 -52.79036 10000 ft 228 kts 333°
2026-04-19 21:03 -14.78926 -52.79661 10000 ft 228 kts 333°
2026-04-19 21:03 -14.77453 -52.80283 10000 ft 228 kts 333°
2026-04-19 21:03 -14.75998 -52.80897 10000 ft 228 kts 333°
2026-04-19 21:04 -14.74528 -52.81518 10000 ft 228 kts 333°
2026-04-19 21:04 -14.73050 -52.82141 10000 ft 228 kts 333°
2026-04-19 21:04 -14.71576 -52.82763 10000 ft 228 kts 333°
2026-04-19 21:04 -14.70111 -52.83381 10000 ft 228 kts 333°
2026-04-19 21:05 -14.68638 -52.84003 10000 ft 228 kts 333°
2026-04-19 21:05 -14.67164 -52.84624 10000 ft 228 kts 333°
2026-04-19 21:05 -14.65686 -52.85247 10000 ft 228 kts 333°
2026-04-19 21:05 -14.64228 -52.85862 10000 ft 228 kts 333°
2026-04-19 21:06 -14.62752 -52.86484 10000 ft 228 kts 333°
2026-04-19 21:06 -14.61278 -52.87105 10000 ft 228 kts 333°
2026-04-19 21:06 -14.59818 -52.87721 10000 ft 228 kts 333°
2026-04-19 21:06 -14.58339 -52.88344 10000 ft 228 kts 333°
2026-04-19 21:07 -14.56865 -52.88965 10000 ft 228 kts 333°
2026-04-19 21:07 -14.55408 -52.89579 10000 ft 228 kts 333°
2026-04-19 21:07 -14.53931 -52.90201 10000 ft 228 kts 333°
2026-04-19 21:07 -14.52467 -52.90818 10000 ft 228 kts 333°
2026-04-19 21:08 -14.50992 -52.91439 10000 ft 228 kts 333°
2026-04-19 21:08 -14.49516 -52.92060 10000 ft 228 kts 333°
2026-04-19 21:08 -14.48039 -52.92682 10000 ft 228 kts 333°
2026-04-19 21:08 -14.46575 -52.93298 10000 ft 228 kts 333°
2026-04-19 21:09 -14.45094 -52.93921 10000 ft 228 kts 333°
2026-04-19 21:09 -14.43637 -52.94534 10000 ft 228 kts 333°
2026-04-19 21:09 -14.42164 -52.95154 10000 ft 228 kts 333°
2026-04-19 21:09 -14.40687 -52.95775 10000 ft 228 kts 333°
2026-04-19 21:10 -14.39206 -52.96398 10000 ft 228 kts 333°
2026-04-19 21:10 -14.37747 -52.97011 10000 ft 228 kts 333°
2026-04-19 21:10 -14.36272 -52.97632 10000 ft 228 kts 333°
2026-04-19 21:10 -14.34807 -52.98247 10000 ft 228 kts 333°
2026-04-19 21:11 -14.33329 -52.98869 10000 ft 228 kts 333°
2026-04-19 21:11 -14.31846 -52.99492 10000 ft 228 kts 333°
2026-04-19 21:11 -14.30386 -53.00106 10000 ft 228 kts 333°
2026-04-19 21:11 -14.28906 -53.00728 10000 ft 228 kts 333°
2026-04-19 21:12 -14.27426 -53.01349 10000 ft 228 kts 333°
2026-04-19 21:12 -14.25968 -53.01961 10000 ft 228 kts 333°
2026-04-19 21:12 -14.24484 -53.02585 10000 ft 228 kts 333°
2026-04-19 21:12 -14.23022 -53.03199 10000 ft 228 kts 333°
2026-04-19 21:13 -14.21542 -53.03820 10000 ft 228 kts 333°
2026-04-19 21:13 -14.20062 -53.04441 10000 ft 228 kts 333°
2026-04-19 21:13 -14.18603 -53.05054 10000 ft 229 kts 333°
2026-04-19 21:13 -14.17135 -53.05670 10000 ft 229 kts 333°
2026-04-19 21:14 -14.15650 -53.06293 10000 ft 229 kts 333°
2026-04-19 21:14 -14.14193 -53.06905 10000 ft 229 kts 333°
2026-04-19 21:14 -14.12708 -53.07527 10000 ft 229 kts 333°
2026-04-19 21:14 -14.11249 -53.08140 10000 ft 229 kts 333°
2026-04-19 21:15 -14.09764 -53.08762 10000 ft 229 kts 333°
2026-04-19 21:15 -14.08283 -53.09383 10000 ft 229 kts 333°
2026-04-19 21:15 -14.06823 -53.09995 10000 ft 229 kts 333°
2026-04-19 21:15 -14.05343 -53.10616 10000 ft 229 kts 333°
2026-04-19 21:16 -14.03869 -53.11234 10000 ft 229 kts 333°
2026-04-19 21:16 -14.02411 -53.11845 10000 ft 229 kts 333°
2026-04-19 21:16 -14.00929 -53.12466 10000 ft 229 kts 333°
2026-04-19 21:16 -13.99468 -53.13078 10000 ft 229 kts 333°
2026-04-19 21:17 -13.97991 -53.13697 10000 ft 229 kts 333°
2026-04-19 21:17 -13.96514 -53.14315 10000 ft 229 kts 333°
2026-04-19 21:17 -13.95044 -53.14931 10000 ft 229 kts 333°
2026-04-19 21:17 -13.93572 -53.15547 10000 ft 229 kts 333°
2026-04-19 21:18 -13.92091 -53.16168 10000 ft 229 kts 333°
2026-04-19 21:18 -13.90613 -53.16786 10000 ft 229 kts 333°
2026-04-19 21:18 -13.89147 -53.17400 10000 ft 229 kts 333°
2026-04-19 21:18 -13.87666 -53.18020 10000 ft 229 kts 333°
2026-04-19 21:19 -13.86205 -53.18631 10000 ft 229 kts 333°
2026-04-19 21:19 -13.84721 -53.19252 10000 ft 229 kts 333°
2026-04-19 21:19 -13.83263 -53.19862 10000 ft 229 kts 333°
2026-04-19 21:19 -13.81781 -53.20482 10000 ft 229 kts 333°
2026-04-19 21:20 -13.80317 -53.21094 10000 ft 229 kts 333°
2026-04-19 21:20 -13.78838 -53.21713 10000 ft 229 kts 333°
2026-04-19 21:20 -13.77353 -53.22334 10000 ft 229 kts 333°
2026-04-19 21:20 -13.75892 -53.22944 10000 ft 229 kts 333°
2026-04-19 21:21 -13.74411 -53.23563 10000 ft 229 kts 333°
2026-04-19 21:21 -13.72932 -53.24182 10000 ft 229 kts 333°
2026-04-19 21:21 -13.71476 -53.24790 10000 ft 229 kts 333°
2026-04-19 21:21 -13.69996 -53.25408 10000 ft 229 kts 333°
2026-04-19 21:22 -13.68520 -53.26025 10000 ft 229 kts 333°
2026-04-19 21:22 -13.67544 -53.26433 10000 ft 229 kts 333°
2026-04-19 21:22 -13.65575 -53.27255 10000 ft 229 kts 333°
2026-04-19 21:22 -13.64102 -53.27870 10000 ft 229 kts 333°
2026-04-19 21:23 -13.62621 -53.28489 10000 ft 229 kts 333°
2026-04-19 21:23 -13.61159 -53.29099 10000 ft 229 kts 333°
2026-04-19 21:23 -13.60178 -53.29509 10000 ft 229 kts 333°
2026-04-19 21:23 -13.58210 -53.30330 10000 ft 229 kts 333°
2026-04-19 21:24 -13.57230 -53.30739 10000 ft 229 kts 333°
2026-04-19 21:24 -13.55267 -53.31558 10000 ft 229 kts 333°
2026-04-19 21:24 -13.54287 -53.31967 10000 ft 229 kts 333°
2026-04-19 21:24 -13.52807 -53.32584 10000 ft 229 kts 333°
2026-04-19 21:25 -13.51328 -53.33201 10000 ft 229 kts 333°
2026-04-19 21:25 -13.49861 -53.33813 10000 ft 229 kts 333°
2026-04-19 21:25 -13.48385 -53.34429 10000 ft 229 kts 333°
2026-04-19 21:25 -13.46906 -53.35046 10000 ft 229 kts 333°
2026-04-19 21:26 -13.45427 -53.35662 10000 ft 229 kts 333°
2026-04-19 21:26 -13.43962 -53.36273 10000 ft 229 kts 333°
2026-04-19 21:26 -13.42479 -53.36891 10000 ft 229 kts 333°
2026-04-19 21:26 -13.41016 -53.37500 10000 ft 229 kts 333°
2026-04-19 21:27 -13.39535 -53.38117 10000 ft 229 kts 333°
2026-04-19 21:27 -13.38066 -53.38729 10000 ft 229 kts 333°
2026-04-19 21:27 -13.36590 -53.39344 10000 ft 229 kts 333°
2026-04-19 21:27 -13.35113 -53.39960 10000 ft 229 kts 333°
2026-04-19 21:28 -13.33631 -53.40577 10000 ft 229 kts 333°
2026-04-19 21:28 -13.32153 -53.41192 10000 ft 229 kts 333°
2026-04-19 21:28 -13.30689 -53.41802 10000 ft 229 kts 333°
2026-04-19 21:28 -13.29210 -53.42417 10000 ft 229 kts 333°
2026-04-19 21:29 -13.27742 -53.43029 10000 ft 229 kts 333°
2026-04-19 21:29 -13.26254 -53.43648 10000 ft 229 kts 333°
2026-04-19 21:29 -13.24790 -53.44257 10000 ft 229 kts 333°
2026-04-19 21:29 -13.23323 -53.44867 10000 ft 229 kts 333°
2026-04-19 21:30 -13.21839 -53.45485 10000 ft 229 kts 333°
2026-04-19 21:30 -13.20376 -53.46093 10000 ft 229 kts 333°
2026-04-19 21:30 -13.18898 -53.46708 10000 ft 229 kts 333°
2026-04-19 21:30 -13.17416 -53.47324 10000 ft 229 kts 333°
2026-04-19 21:31 -13.15937 -53.47939 10000 ft 229 kts 333°
2026-04-19 21:31 -13.14462 -53.48553 10000 ft 229 kts 333°
2026-04-19 21:31 -13.12985 -53.49167 10000 ft 229 kts 333°
2026-04-19 21:31 -13.11517 -53.49777 10000 ft 229 kts 333°
2026-04-19 21:32 -13.10039 -53.50391 10000 ft 229 kts 333°
2026-04-19 21:32 -13.08561 -53.51005 10000 ft 229 kts 333°
2026-04-19 21:32 -13.07100 -53.51612 10000 ft 229 kts 333°
2026-04-19 21:32 -13.05617 -53.52228 10000 ft 229 kts 333°
2026-04-19 21:33 -13.04137 -53.52843 10000 ft 229 kts 333°
2026-04-19 21:33 -13.02671 -53.53452 10000 ft 229 kts 333°
2026-04-19 21:33 -13.01193 -53.54066 10000 ft 229 kts 333°
2026-04-19 21:33 -12.99722 -53.54676 10000 ft 229 kts 333°
2026-04-19 21:34 -12.98240 -53.55292 10000 ft 229 kts 333°
2026-04-19 21:34 -12.96759 -53.55907 10000 ft 229 kts 333°
2026-04-19 21:34 -12.95298 -53.56513 10000 ft 229 kts 333°
2026-04-19 21:34 -12.93815 -53.57128 10000 ft 229 kts 333°
2026-04-19 21:35 -12.92335 -53.57743 10000 ft 229 kts 333°
2026-04-19 21:35 -12.90855 -53.58357 10000 ft 229 kts 333°
2026-04-19 21:35 -12.89392 -53.58964 10000 ft 229 kts 333°
2026-04-19 21:35 -12.87906 -53.59580 10000 ft 229 kts 333°
2026-04-19 21:36 -12.86442 -53.60187 10000 ft 229 kts 333°
2026-04-19 21:36 -12.84957 -53.60803 10000 ft 229 kts 333°
2026-04-19 21:36 -12.83493 -53.61410 10000 ft 229 kts 333°
2026-04-19 21:36 -12.82016 -53.62022 10000 ft 229 kts 333°
2026-04-19 21:37 -12.80527 -53.62640 10000 ft 229 kts 333°
2026-04-19 21:37 -12.79065 -53.63246 10000 ft 229 kts 333°
2026-04-19 21:37 -12.77586 -53.63859 10000 ft 229 kts 333°
2026-04-19 21:37 -12.76113 -53.64469 10000 ft 229 kts 333°
2026-04-19 21:38 -12.74633 -53.65082 10000 ft 229 kts 333°
2026-04-19 21:38 -12.73154 -53.65695 10000 ft 229 kts 333°
2026-04-19 21:38 -12.71691 -53.66301 10000 ft 229 kts 333°
2026-04-19 21:38 -12.70213 -53.66914 10000 ft 229 kts 333°
2026-04-19 21:39 -12.68734 -53.67526 10000 ft 229 kts 333°
2026-04-19 21:39 -12.67241 -53.68144 10000 ft 229 kts 333°
2026-04-19 21:39 -12.65776 -53.68751 10000 ft 229 kts 333°
2026-04-19 21:39 -12.64303 -53.69374 10000 ft 229 kts 332°
2026-04-19 21:40 -12.61396 -53.70669 10000 ft 228 kts 331°
2026-04-19 21:40 -12.59933 -53.71335 10000 ft 228 kts 331°
2026-04-19 21:40 -12.58479 -53.72001 10000 ft 228 kts 331°
2026-04-19 21:41 -12.57047 -53.72659 10000 ft 228 kts 331°
2026-04-19 21:41 -12.55594 -53.73328 10000 ft 228 kts 331°
2026-04-19 21:41 -12.54133 -53.74001 10000 ft 228 kts 331°
2026-04-19 21:41 -12.52696 -53.74664 10000 ft 228 kts 331°
2026-04-19 21:42 -12.51242 -53.75334 10000 ft 228 kts 331°
2026-04-19 21:42 -12.49807 -53.75996 10000 ft 228 kts 331°
2026-04-19 21:42 -12.48348 -53.76669 10000 ft 228 kts 331°
2026-04-19 21:42 -12.46914 -53.77330 10000 ft 228 kts 331°
2026-04-19 21:43 -12.45463 -53.77999 10000 ft 228 kts 331°
2026-04-19 21:43 -12.44007 -53.78671 10000 ft 228 kts 331°
2026-04-19 21:43 -12.42571 -53.79333 10000 ft 228 kts 331°
2026-04-19 21:43 -12.41115 -53.80004 10000 ft 228 kts 331°
2026-04-19 21:44 -12.39679 -53.80666 10000 ft 228 kts 331°
2026-04-19 21:44 -12.38231 -53.81333 10000 ft 228 kts 331°
2026-04-19 21:44 -12.36775 -53.82004 10000 ft 228 kts 331°
2026-04-19 21:44 -12.35321 -53.82674 10000 ft 228 kts 331°
2026-04-19 21:45 -12.33888 -53.83334 10000 ft 228 kts 331°
2026-04-19 21:45 -12.32436 -53.84003 10000 ft 228 kts 331°
2026-04-19 21:45 -12.30989 -53.84670 10000 ft 228 kts 331°
2026-04-19 21:45 -12.29528 -53.85343 10000 ft 228 kts 331°
2026-04-19 21:46 -12.28099 -53.86001 10000 ft 228 kts 331°
2026-04-19 21:46 -12.26643 -53.86671 10000 ft 228 kts 331°
2026-04-19 21:46 -12.25193 -53.87339 10000 ft 228 kts 331°
2026-04-19 21:46 -12.23738 -53.88009 10000 ft 228 kts 331°
2026-04-19 21:47 -12.22298 -53.88671 10000 ft 228 kts 331°
2026-04-19 21:47 -12.20845 -53.89340 10000 ft 228 kts 331°
2026-04-19 21:47 -12.19393 -53.90008 10000 ft 228 kts 331°
2026-04-19 21:47 -12.17951 -53.90672 10000 ft 228 kts 331°
2026-04-19 21:48 -12.16511 -53.91334 10000 ft 228 kts 331°
2026-04-19 21:48 -12.15053 -53.92005 10000 ft 228 kts 331°
2026-04-19 21:48 -12.13615 -53.92666 10000 ft 228 kts 331°
2026-04-19 21:48 -12.12163 -53.93334 10000 ft 228 kts 331°
2026-04-19 21:49 -12.10707 -53.94003 10000 ft 228 kts 331°
2026-04-19 21:49 -12.09267 -53.94666 10000 ft 228 kts 331°
2026-04-19 21:49 -12.07813 -53.95334 10000 ft 228 kts 331°
2026-04-19 21:49 -12.06382 -53.95992 10000 ft 228 kts 331°
2026-04-19 21:50 -12.04925 -53.96662 10000 ft 228 kts 331°
2026-04-19 21:50 -12.03468 -53.97331 10000 ft 228 kts 331°
2026-04-19 21:50 -12.02030 -53.97992 10000 ft 228 kts 331°
2026-04-19 21:50 -12.00577 -53.98659 10000 ft 228 kts 331°
2026-04-19 21:51 -11.99129 -53.99324 9997 ft 219 kts 331°
2026-04-19 21:51 -11.97856 -53.99897 9973 ft 185 kts 330°
2026-04-19 21:51 -11.96768 -54.00383 9965 ft 156 kts 329°
2026-04-19 21:51 -11.95851 -54.00798 9956 ft 131 kts 328°
2026-04-19 21:52 -11.95087 -54.01149 9943 ft 109 kts 326°
2026-04-19 21:52 -11.94476 -54.01434 9913 ft 86 kts 323°
2026-04-19 21:52 -11.93998 -54.01659 9408 ft 73 kts 320°
2026-04-19 21:52 -11.93529 -54.01891 7242 ft 54 kts 321°
2026-04-19 21:53 -11.93409 -54.02073 4683 ft 56 kts 217°
2026-04-19 21:53 -11.94050 -54.02565 3771 ft 124 kts 205°
2026-04-19 21:53 -11.94543 -54.02995 3942 ft 89 kts 251°
2026-04-19 21:53 -11.94436 -54.03566 3607 ft 75 kts 314°
2026-04-19 21:54 -11.94123 -54.03900 1426 ft 24 kts 340°
2026-04-19 21:54 -11.94168 -54.03899 1174 ft 0 kts 150°